ICEYE-X41

导读 | 星芒AI

ICEYE-X41 是 ICEYE 公司研发的一颗合成孔径雷达(SAR)卫星,具备高分辨率和全天候成像能力。该卫星采用小型卫星平台,支持亚米级分辨率,可在任何天气和光照条件下提供地球表面的清晰图像。ICEYE-X41 用于商业遥感、灾害监测、环境评估和国防应用,增强了 ICEYE 卫星星座的覆盖能力和数据获取频率,为用户提供更及时、可靠的地球观测服务。

基本信息
目录编号:
62700
目录名称:
ICEYE-X41
国际标识:
2025-009CV
轨道中心:
EARTH
卫星名称:
ICEYE-X41
卫星全名:
ICEYE-X41
卫星状态:
在轨 (已飞行288 天)
发射日期:
2025-01-14 UTC
国别 :
美国 (US)
星等 :
--
轨道信息
数据来源 国际轨道数据
星历时间: 2025-10-28T19:43:16+0800
19小时前
查看轨道信息
半长轴: 6961.401km
偏心率: 0.0002661
轨道倾角: 97.727°
近地点辐角 90.052°
升交点赤经 19.461°
平近点角 270.100°
近地点: 581.413km
远地点: 585.119km
周期: 96.340分钟
每日圈数: 14.94713
详细信息
使用方式:
暂无
2D轨道图
3D轨道图
轨道高度分析图
轨道倾角分析图
轨道综合分析图
查看轨道综合分析图